Find Starlink 37111

NORAD ID: 68381 Int'l Des: 2026-063 Owner: SPXS Country: US Constellation: starlink operational
LEOCIRCULARRETROGRADE

Live-Position

3D-Globus wird geladen...

Über Starlink 37111

Beschreibung wird geladen...

Nächste Überflüge

Passes for default location (London). Set your location on the main map for personalized predictions.

Höhenverlauf

Loading altitude history...

Zweizeiliger Elementsatz

1 68381U 26063B 26130.50002315 -.01216623 00000-0 -24175-1 0 9994
2 68381 97.2850 273.1732 0001419 97.5884 169.1732 15.49653049 5640
Epoch: 10. Mai 2026 • Age: 10 hours

Aktueller Status

Höhe 430.6 km
Geschwindigkeit 7.66 km/s
Subsatellitenpunkt 60.26°N, 95.51°W
Startdatum 26. März 2026
Alter 0.1 years
Typ internet

Technische Details

Klassifizierung Payload
Masse 575.00 kg
Trockenmasse 530.00 kg
Gesamtmasse 575.00 kg
Länge 0.30 m
Durchmesser 4.10 m
Spannweite 29.00 m
Form Box + pan
Hersteller SPXS
Bus-Typ Starlink V2MO
Phasenstatus In Orbit
Besitzer/Staat SPXS/US

Most Searched